Startseite
Über Mich
AHP4
Galerie
Sehschlangen
Tourenbuch
Bookmarks
Elektronik
Bewertung
Geschichten
[Tagesmessung] [Jahreswerte] [Information]

Messwerte vom 09.02.2022

Die letzten Messwerte von 23:58:47 Uhr:
KategorieMesswert
Temperatur [°C]8
Luftdruck [mBar]1006
Sonneneinstrahlung0
Wind [km/h]1 aus Südwest
Niederschlag [l/m²]0
rel.Luftfeucht.93%
CO2 [ppm]565

Diagramme
Messwerte vom 09.02.2022
Tagesaggregation
KategorieMinimumMaximumSchnittSumme
Temperatur [°C]8108.3083
Luftdruck [mBar]100610101006.7292
Sonneneinstrahlung22069.1625
Wind [km/h]33
rF [%]84.396.691.88
Niederschlag [l/m²]0
CO2 [ppm]403729582.1
Einordnung alsVegetationstag

Messungen an benachbarten Tagen: Zur Jahresaggregation 2022
Tabelle aller Messwerte
UhrzeitTemperatur [°C]Luftdruck [mBar]SonneWind [km/h]RichtungRegen [l/m²]rF [%]CO2 [ppm]
00:01:47 8 1009 0 2 SW 0 96.6 603
00:04:45 8 1008 0 4 S 0 96.6 603
00:07:45 8 1009 0 4 S 0 96.6 594
00:10:49 8 1009 0 4 S 0 96.6 588
00:13:46 8 1008 0 4 O 0 96.6 586
00:16:48 8 1008 0 9 SO 0 96.6 592
00:19:50 8 1009 0 2 NW 0 96.6 596
00:22:46 8 1009 0 3 W 0 96.6 597
00:25:45 8 1009 0 3 N 0 96.6 597
00:28:46 8 1009 0 5 S 0 96.6 601
00:31:48 8 1009 0 7 SO 0 96.6 597
00:34:47 8 1009 0 4 SW 0 96.6 601
00:37:47 8 1009 0 0 SO 0 96.6 601
00:40:46 8 1009 0 6 S 0 96.6 598
00:43:49 8 1009 0 11 SW 0 96.6 589
00:46:47 8 1009 0 2 SW 0 96.6 588
00:49:49 8 1008 0 4 S 0 96.6 580
00:52:48 8 1009 0 14 NO 0 96.6 594
00:55:46 8 1009 0 5 O 0 96.6 592
00:58:48 8 1009 0 4 W 0 96.6 589
01:01:46 8 1009 0 7 S 0 96.6 580
01:04:47 8 1009 0 3 SW 0 96.6 582
01:07:49 8 1009 0 10 SW 0 96.6 583
01:10:45 8 1009 0 2 N 0 96.6 582
01:13:50 8 1009 0 5 SO 0 96.6 583
01:16:48 8 1009 0 8 SW 0 96.6 589
01:19:46 8 1009 0 5 O 0 96.6 588
01:22:47 8 1009 0 1 S 0 96.6 593
01:25:49 8 1008 0 2 SW 0 96.6 589
01:28:49 8 1008 0 8 SW 0 96.6 592
01:31:49 8 1009 0 8 O 0 96.6 588
01:34:46 8 1008 0 6 W 0 96.6 583
01:37:50 8 1009 0 7 SO 0 96.6 579
01:40:48 8 1008 0 5 SO 0 96.6 583
01:43:46 8 1009 0 17 SO 0 96.6 591
01:46:47 8 1008 0 5 N 0 96.6 583
01:49:48 8 1009 0 6 O 0 96.6 579
01:52:44 8 1009 0 6 W 0 96.6 574
01:55:47 8 1009 0 15 W 0 96.6 580
01:58:46 8 1008 0 2 S 0 96.6 577
02:01:44 8 1009 0 6 S 0 96.6 580
02:04:46 8 1009 0 3 0 96.6 574
02:07:45 8 1009 0 7 S 0 96.6 579
02:10:47 8 1009 0 8 W 0 96.6 589
02:13:51 8 1009 0 1 SW 0 96.6 586
02:16:46 8 1009 0 5 SW 0 96.6 585
02:19:48 8 1010 0 2 NW 0 96.6 589
02:22:46 8 1009 0 17 W 0 96.6 590
02:25:49 8 1008 0 7 S 0 96.6 595
02:28:46 8 1009 0 7 S 0 96.6 594
02:31:47 8 1009 0 4 N 0 96.6 595
02:34:48 8 1009 0 12 SW 0 96.6 597
02:37:48 8 1009 0 4 O 0 96.6 594
02:40:48 8 1009 0 6 SW 0 96.6 588
02:43:48 8 1009 0 3 SW 0 96.6 573
02:46:46 8 1009 0 3 W 0 96.6 574
02:49:50 8 1008 0 13 SW 0 96.6 574
02:52:47 8 1009 0 6 O 0 96.6 579
02:55:48 8 1009 0 2 NW 0 96.6 583
02:58:48 8 1009 0 6 S 0 96.6 589
03:01:46 8 1009 0 2 NW 0 96.6 600
03:04:46 8 1009 0 14 S 0 96.6 597
03:07:47 8 1009 0 6 SW 0 96.6 592
03:10:48 8 1009 0 4 SO 0 96.6 582
03:13:46 8 1009 0 6 W 0 96.6 583
03:16:46 8 1009 0 6 SW 0 96.6 589
03:19:47 8 1009 0 6 NW 0 96.6 595
03:22:46 8 1008 0 10 S 0 96.6 585
03:25:49 8 1008 0 6 SW 0 96.6 579
03:28:49 8 1009 0 8 SW 0 96.6 579
03:31:46 8 1009 0 1 W 0 96.6 583
03:34:46 8 1008 0 5 S 0 96.6 591
03:37:48 8 1008 0 9 SW 0 96.5 593
03:40:46 8 1009 0 3 S 0 96.4 583
03:43:50 8 1009 0 3 SW 0 95.9 589
03:46:46 8 1009 0 2 0 96 580
03:49:49 8 1009 0 2 SO 0 96.2 592
03:52:45 8 1009 0 3 W 0 96.1 594
03:55:49 8 1008 0 17 SW 0 96.1 597
03:58:46 8 1009 0 5 O 0 96 601
04:01:48 8 1008 0 7 S 0 95.7 606
04:04:47 8 1008 0 2 SO 0 95.5 606
04:07:48 8 1009 0 9 W 0 95.5 605
04:10:50 8 1008 0 6 SO 0 95.6 603
04:13:46 8 1008 0 5 S 0 95.6 600
04:16:46 8 1009 0 1 S 0 95.7 601
04:19:47 8 1009 0 4 O 0 95.9 600
04:22:46 8 1008 0 3 S 0 95.9 594
04:25:48 8 1009 0 0 W 0 96 594
04:28:48 8 1009 0 3 SW 0 96.2 600
04:31:47 8 1008 0 3 N 0 96.3 601
04:34:46 8 1009 0 3 SW 0 96.3 606
04:37:47 8 1008 0 1 SO 0 96.4 598
04:40:47 8 1008 0 3 O 0 96.4 600
04:43:49 8 1008 0 1 SW 0 96.3 600
04:46:47 8 1008 0 7 S 0 96.1 610
04:49:45 8 1007 0 1 N 0 95.7 609
04:52:45 8 1008 0 3 SO 0 95.5 607
04:55:48 8 1008 0 2 SW 0 94.9 601
04:58:46 8 1008 0 0 O 0 94.6 604
05:01:49 8 1008 0 2 SW 0 94.5 603
05:04:46 8 1008 0 1 O 0 94.5 603
05:07:49 8 1007 0 2 NO 0 94.3 600
05:10:46 8 1008 0 2 S 0 94 601
05:13:47 8 1008 0 6 S 0 93.8 600
05:16:47 8 1008 0 5 S 0 93.7 597
05:19:49 8 1008 0 2 W 0 93.7 600
05:22:47 8 1007 0 2 S 0 93.6 599
05:25:49 8 1009 0 3 SW 0 93.8 598
05:28:47 8 1008 0 1 S 0 93.5 606
05:31:46 8 1009 0 3 W 0 93.4 610
05:34:47 8 1007 0 2 SO 0 93.3 611
05:37:50 8 1008 0 0 NW 0 93.3 606
05:40:50 8 1008 0 1 S 0 93.6 607
05:43:49 8 1008 0 6 SO 0 93.6 615
05:46:47 8 1007 0 6 W 0 93.7 612
05:49:48 8 1007 0 2 SO 0 93.7 604
05:52:49 8 1007 0 3 SW 0 93.7 603
05:55:47 8 1008 0 6 O 0 93.6 606
05:58:48 8 1008 0 7 S 0 93.6 610
06:01:47 8 1008 0 0 SW 0 93.7 609
06:04:47 8 1007 0 5 SW 0 93.5 609
06:07:49 8 1007 0 1 W 0 93.3 612
06:10:47 8 1008 0 2 S 0 93.4 612
06:13:48 8 1007 0 1 SW 0 93.3 612
06:16:47 8 1008 0 1 W 0 93.4 601
06:19:47 8 1007 0 0 NO 0 93.4 606
06:22:48 8 1007 0 2 SO 0 93.6 604
06:25:48 8 1007 0 1 SO 0 93.5 603
06:28:49 8 1007 0 3 0 93.3 601
06:31:47 8 1007 0 3 O 0 93.1 604
06:34:47 8 1007 0 1 SW 0 93.1 604
06:37:48 8 1006 0 3 SW 0 93 603
06:40:48 8 1006 0 2 SW 0 92.8 604
06:43:47 8 1006 0 1 W 0 93.2 610
06:46:49 8 1007 0 0 NO 0 93.2 609
06:49:48 8 1006 0 0 SW 0 93.3 614
06:52:47 8 1007 0 1 W 0 93.3 606
06:55:46 8 1007 0 2 SW 0 93.4 603
06:58:47 8 1007 0 1 NW 0 93.5 605
07:01:47 8 1007 0 7 SO 0 93.3 606
07:04:50 8 1007 0 4 W 0 93.3 606
07:07:48 8 1007 0 3 W 0 93.2 598
07:10:44 8 1007 0 4 0 93.1 594
07:13:47 8 1007 0 4 W 0 92.8 591
07:16:49 8 1007 0 2 SW 0 92.1 584
07:19:47 8 1007 0 1 S 0 91.6 600
07:22:45 8 1007 3 4 S 0 91.3 612
07:25:46 8 1007 4 3 SW 0 90.9 624
07:28:46 8 1007 5 4 W 0 90.2 624
07:31:47 8 1006 7 2 S 0 90.6 633
07:34:45 8 1007 9 4 SW 0 90.7 630
07:37:46 8 1007 14 1 SO 0 90.3 627
07:40:49 8 1007 26 3 SW 0 90.3 624
07:43:49 8 1006 29 2 SW 0 90.1 626
07:46:47 8 1007 28 4 S 0 90.1 629
07:49:48 8 1006 32 2 N 0 90.3 629
07:52:47 8 1006 37 3 W 0 90.3 632
07:55:47 8 1006 37 1 O 0 90.2 638
07:58:47 8 1006 41 4 S 0 90.4 653
08:01:48 8 1007 47 2 SO 0 90.6 659
08:04:48 8 1007 50 4 SW 0 90.7 671
08:07:48 8 1006 52 0 S 0 90.9 668
08:10:51 8 1006 60 1 SW 0 91.2 662
08:13:49 8 1006 66 3 SW 0 91.3 659
08:16:48 8 1007 52 3 S 0 91.6 662
08:19:48 8 1006 55 7 SW 0 91.7 665
08:22:48 8 1007 56 5 S 0 92 664
08:25:49 8 1006 67 2 NW 0 92.3 668
08:28:48 8 1007 85 6 SW 0 92.5 669
08:31:50 8 1006 91 3 SO 0 92.3 668
08:34:49 8 1007 90 3 W 0 92.2 657
08:37:48 8 1007 91 0 O 0 92.2 652
08:40:48 8 1007 86 2 NO 0 92.2 656
08:43:49 8 1006 97 4 SO 0 91.9 665
08:46:49 8 1006 102 8 S 0 91.9 674
08:49:52 8 1006 108 3 SO 0 91.9 674
08:52:47 8 1006 114 4 S 0 91.9 677
08:55:46 8 1006 124 2 O 0 91.9 674
08:58:49 8 1006 124 4 S 0 91.7 678
09:01:48 8 1006 111 3 SW 0 91.4 676
09:04:47 8 1007 125 1 SW 0 91.2 679
09:07:50 8 1006 131 9 SO 0 90.6 684
09:10:50 8 1007 138 0 NO 0 90 685
09:13:51 8 1006 142 1 W 0 89.9 686
09:16:49 8 1006 147 3 SW 0 89.7 688
09:19:47 8 1006 145 1 O 0 89.5 685
09:22:48 8 1007 154 6 S 0 89.1 685
09:25:49 8 1006 166 3 NO 0 88.9 685
09:28:50 8 1007 169 4 SO 0 89.2 682
09:31:51 8 1006 169 13 S 0 89.2 679
09:34:47 8 1006 169 5 S 0 89.2 682
09:37:56 8 1006 159 4 NW 0 88.7 688
09:40:49 8 1006 169 2 S 0 88.5 691
09:43:51 8 1006 186 15 SW 0 88.7 694
09:46:47 8 1006 192 3 O 0 88.4 691
09:49:50 8 1006 195 3 SW 0 88.7 687
09:52:47 8 1006 197 4 S 0 88.3 688
09:55:51 9 1006 203 12 W 0 88.5 692
09:58:49 9 1006 200 0 W 0 88.6 702
10:01:48 9 1006 198 3 O 0 88.3 703
10:04:49 9 1006 201 2 NW 0 88.5 697
10:07:48 9 1006 201 2 NO 0 88.6 694
10:10:48 9 1006 202 5 SW 0 88.5 691
10:13:49 9 1006 201 15 SW 0 87.9 692
10:16:50 9 1006 198 8 SW 0 88 696
10:19:48 9 1006 194 5 0 87.9 701
10:22:48 9 1006 185 6 SW 0 87.7 702
10:25:46 9 1006 177 4 S 0 88.5 693
10:28:51 9 1006 163 10 SO 0 89.5 695
10:31:46 8 1006 176 6 S 0 90.7 688
10:34:47 8 1006 172 4 W 0 93.1 700
10:37:49 8 1006 181 6 SW 0 94.6 695
10:40:46 8 1006 194 8 SW 0 96 702
10:43:49 8 1006 188 3 NW 0 96.5 702
10:46:48 8 1006 193 4 S 0 96.6 697
10:49:49 8 1006 199 2 W 0 96.6 697
10:52:47 8 1006 203 2 N 0 96.6 700
10:55:49 8 1006 209 2 W 0 96.6 708
10:58:48 8 1006 209 5 W 0 96.6 715
11:01:46 8 1006 201 2 W 0 96.6 715
11:04:48 8 1006 198 7 O 0 96.4 715
11:07:47 8 1006 192 3 S 0 95.8 720
11:10:52 8 1006 188 25 N 0 95.4 720
11:13:48 8 1006 199 4 SO 0 95.2 712
11:16:48 8 1006 200 7 W 0 95.2 703
11:19:48 8 1006 204 2 NW 0 95.2 700
11:22:46 9 1006 198 4 S 0 94.7 710
11:25:51 9 1006 208 4 NW 0 94 708
11:28:46 9 1006 181 1 NW 0 93.6 705
11:31:48 9 1006 197 1 SW 0 93.1 702
11:34:50 9 1006 204 10 O 0 93.1 708
11:37:47 9 1006 213 2 SO 0 93.2 723
11:40:48 9 1006 207 5 NO 0 94 715
11:43:47 9 1006 203 10 0 94.3 717
11:46:47 9 1006 202 9 S 0 94.3 711
11:49:47 9 1006 203 4 SW 0 94.4 718
11:52:48 9 1006 214 2 SW 0 94.4 715
11:55:48 9 1006 200 9 SW 0 94.5 712
11:58:48 9 1006 202 6 W 0 94.5 715
12:01:48 9 1006 201 0 O 0 94.2 711
12:04:49 9 1006 196 3 SW 0 93.7 712
12:07:46 9 1006 190 4 O 0 92.4 715
12:10:50 9 1006 188 6 SW 0 91.9 717
12:13:48 9 1006 210 4 S 0 91.6 717
12:16:48 9 1006 215 8 S 0 91.8 718
12:19:50 9 1006 210 6 S 0 91.3 720
12:22:47 9 1006 210 4 W 0 91 713
12:25:47 9 1006 209 16 S 0 90.4 713
12:28:49 9 1006 206 5 N 0 88.9 704
12:31:47 9 1006 199 9 W 0 89.7 704
12:34:47 9 1006 206 11 SW 0 89.1 708
12:37:51 9 1006 207 11 SW 0 87.9 712
12:40:52 9 1006 212 1 SW 0 88 720
12:43:49 9 1006 213 8 W 0 88.2 715
12:46:50 9 1006 208 3 SW 0 88.2 723
12:49:48 9 1006 209 6 NW 0 88 721
12:52:50 9 1006 210 5 SW 0 87.9 722
12:55:48 9 1006 216 13 SW 0 87.4 729
12:58:48 9 1006 197 5 SW 0 87.4 729
13:01:50 9 1006 210 1 NW 0 88 407
13:04:47 9 1006 208 8 N 0 88.1 404
13:07:49 9 1006 211 10 SO 0 88 413
13:10:49 9 1006 199 3 NW 0 87.8 439
13:13:46 9 1006 197 5 SW 0 87.4 413
13:16:51 9 1006 211 4 NW 0 87.3 407
13:19:48 9 1006 214 5 SW 0 87.1 404
13:22:49 9 1006 218 19 SW 0 86.8 407
13:25:51 9 1006 220 12 NW 0 87 406
13:28:49 10 1006 211 8 S 0 86.8 407
13:31:47 10 1006 209 8 W 0 86.6 403
13:34:48 10 1006 210 2 W 0 86.6 404
13:37:50 10 1006 206 7 S 0 84.4 404
13:40:46 10 1006 210 7 O 0 84.5 408
13:43:46 10 1006 208 2 O 0 85.2 404
13:46:46 10 1006 210 19 SW 0 85 407
13:49:50 10 1006 207 12 SW 0 84.7 403
13:52:49 10 1006 191 12 W 0 85 416
13:55:48 10 1006 189 3 NW 0 84.3 415
13:58:48 10 1006 193 6 SO 0 84.7 422
14:01:47 9 1006 198 2 SW 0 85.1 419
14:04:47 10 1006 197 4 W 0 85.5 428
14:07:48 9 1006 187 1 SO 0 85.6 436
14:10:49 9 1006 193 10 S 0 85.6 443
14:13:48 9 1006 185 11 S 0 85.1 436
14:16:48 9 1006 194 3 O 0 85.4 434
14:19:49 9 1006 194 10 SW 0 85.9 434
14:22:49 9 1006 187 5 W 0 86.3 440
14:25:48 9 1006 179 2 NW 0 86.6 442
14:28:49 9 1006 173 8 SO 0 86.2 451
14:31:50 9 1006 176 3 S 0 86.7 453
14:34:47 9 1006 184 23 O 0 86.7 456
14:37:49 9 1006 188 12 W 0 86.6 459
14:40:49 9 1006 206 8 SW 0 87 456
14:43:51 9 1006 200 13 SW 0 87.2 468
14:46:48 9 1006 212 2 SW 0 87.4 470
14:49:49 9 1006 200 5 S 0 87.2 474
14:52:47 9 1006 206 7 NW 0 86.8 471
14:55:47 9 1006 212 4 SW 0 87 468
14:58:47 9 1006 206 11 N 0 87 466
15:01:47 9 1006 201 4 S 0 86.9 465
15:04:48 9 1006 202 1 NO 0 87 486
15:07:49 10 1006 208 9 SW 0 87.3 492
15:10:46 9 1006 201 4 W 0 87 474
15:13:49 9 1006 203 11 NW 0 86.6 477
15:16:47 9 1006 202 16 O 0 86.7 477
15:19:49 9 1006 210 9 W 0 87.1 483
15:22:47 9 1006 215 7 SW 0 87.1 483
15:25:48 10 1006 217 5 S 0 87.5 486
15:28:51 10 1006 213 4 SO 0 87.5 498
15:31:49 10 1006 207 7 SW 0 87.2 500
15:34:48 10 1006 204 2 O 0 86.7 506
15:37:48 10 1006 211 2 SW 0 87.1 500
15:40:46 10 1006 196 3 O 0 87.3 503
15:43:47 10 1006 195 3 N 0 87.7 507
15:46:46 9 1006 190 2 O 0 87.6 515
15:49:49 9 1006 182 1 SW 0 87.8 518
15:52:49 9 1006 212 6 SW 0 87.8 509
15:55:47 9 1006 210 11 O 0 87.9 509
15:58:48 9 1006 196 16 SW 0 88 504
16:01:48 9 1006 208 11 SW 0 88.3 506
16:04:49 9 1006 201 5 S 0 88.5 553
16:07:49 9 1006 190 6 W 0 88.6 548
16:10:51 9 1006 180 4 S 0 88.6 539
16:13:49 9 1006 175 2 S 0 88.6 528
16:16:50 9 1006 167 10 S 0 88.6 533
16:19:49 9 1006 155 33 S 0 88.6 546
16:22:49 9 1006 148 2 SW 0 89.2 559
16:25:47 9 1006 137 10 N 0 89.3 562
16:28:51 9 1006 146 5 SO 0 89.1 580
16:31:50 9 1006 138 4 SW 0 89.4 585
16:34:48 9 1006 150 9 SO 0 89.5 585
16:37:48 9 1006 147 3 SW 0 89.5 585
16:40:52 9 1006 138 5 O 0 89.5 577
16:43:49 9 1006 137 2 N 0 89.5 548
16:46:47 9 1006 154 7 W 0 89.5 548
16:49:48 9 1006 152 8 W 0 89.6 550
16:52:50 9 1006 152 13 NW 0 89.7 548
16:55:50 9 1006 147 4 NO 0 90 553
16:58:49 9 1006 144 2 SO 0 90.2 548
17:01:47 9 1006 133 2 W 0 90.3 541
17:04:45 9 1006 114 2 W 0 90.5 535
17:07:48 9 1006 102 6 NW 0 90.7 535
17:10:49 8 1006 86 2 W 0 91 529
17:13:47 8 1006 83 8 SW 0 91.1 530
17:16:47 8 1006 72 4 SW 0 91 527
17:19:47 8 1006 63 2 S 0 90.7 527
17:22:47 8 1006 47 2 SW 0 90.7 530
17:25:46 8 1006 36 4 NW 0 91 526
17:28:48 8 1006 29 3 SW 0 91 527
17:31:51 8 1006 22 8 SW 0 91 533
17:34:48 8 1006 15 3 SW 0 91 542
17:37:47 8 1006 10 2 SO 0 91 544
17:40:45 8 1006 6 7 SW 0 91.1 532
17:43:45 8 1006 4 2 S 0 91.1 529
17:46:47 8 1006 0 0 S 0 91.2 541
17:49:45 8 1006 0 4 S 0 91.3 550
17:52:48 8 1006 0 1 SO 0 91 546
17:55:47 8 1006 0 7 SW 0 90.6 541
17:58:45 8 1006 0 2 S 0 90.5 538
18:01:47 8 1006 0 2 O 0 90.5 541
18:04:47 8 1006 0 1 W 0 90.6 547
18:07:45 8 1006 0 1 NO 0 90.7 553
18:10:45 8 1006 0 0 N 0 90.4 559
18:13:47 8 1006 0 5 S 0 90.2 565
18:16:48 8 1006 0 1 SW 0 90.1 559
18:19:45 8 1006 0 6 N 0 90.1 563
18:22:47 8 1006 0 4 W 0 90.1 565
18:25:46 8 1006 0 12 W 0 90.1 574
18:28:48 8 1006 0 5 S 0 90 575
18:31:48 8 1006 0 8 W 0 90 582
18:34:47 8 1006 0 1 SW 0 90 592
18:37:49 8 1006 0 2 SW 0 90.1 589
18:40:46 8 1006 0 3 W 0 90.1 592
18:43:49 8 1006 0 7 S 0 90.2 591
18:46:48 8 1006 0 10 N 0 90.2 598
18:49:51 8 1006 0 3 NO 0 90.2 600
18:52:48 8 1006 0 1 SO 0 90.3 605
18:55:49 8 1006 0 3 NO 0 90.3 609
18:58:48 8 1006 0 0 SW 0 90.3 608
19:01:50 8 1006 0 4 SW 0 90.5 618
19:04:48 8 1006 0 5 SW 0 90.4 615
19:07:47 8 1006 0 1 SO 0 90.4 618
19:10:48 8 1006 0 6 SO 0 90.5 621
19:13:46 8 1006 0 5 S 0 90.6 620
19:16:45 8 1006 0 3 S 0 90.6 632
19:19:45 8 1006 0 4 S 0 90.5 636
19:22:47 8 1006 0 4 S 0 90.4 634
19:25:46 8 1006 0 7 S 0 90.4 634
19:28:46 8 1006 0 5 NO 0 90.1 629
19:31:49 8 1006 0 2 S 0 90.1 633
19:34:48 8 1006 0 1 O 0 90.1 634
19:37:47 8 1006 0 1 O 0 90.2 637
19:40:46 8 1006 0 2 SW 0 90.4 630
19:43:49 8 1006 0 2 SW 0 90.4 636
19:46:49 8 1006 0 1 W 0 90.3 642
19:49:48 8 1006 0 2 SW 0 90.3 650
19:52:46 8 1006 0 5 S 0 90.2 641
19:55:49 8 1006 0 1 NW 0 90.2 635
19:58:48 8 1006 0 3 SO 0 90.3 644
20:01:46 8 1006 0 2 S 0 90.3 652
20:04:48 8 1006 0 3 NW 0 90.1 653
20:07:49 8 1006 0 5 SW 0 90.1 648
20:10:48 8 1006 0 5 SO 0 90.1 659
20:13:46 8 1006 0 2 SW 0 90.1 665
20:16:48 8 1006 0 0 SW 0 90.3 674
20:19:49 8 1006 0 1 SW 0 90.5 677
20:22:49 8 1006 0 4 SO 0 90.6 685
20:25:47 8 1006 0 4 SO 0 90.5 680
20:28:47 8 1006 0 3 S 0 90.5 684
20:31:49 8 1006 0 5 S 0 90.5 683
20:34:47 8 1006 0 3 W 0 90.6 697
20:37:48 8 1006 0 4 S 0 90.7 692
20:40:45 8 1006 0 3 0 90.8 679
20:43:47 8 1006 0 4 O 0 91 681
20:46:47 8 1006 0 5 S 0 91.1 689
20:49:48 8 1006 0 5 S 0 91.2 405
20:52:44 8 1006 0 4 W 0 91.3 407
20:55:46 8 1006 0 2 0 91.2 411
20:58:45 8 1006 0 5 SO 0 91.2 404
21:01:50 8 1006 0 5 SW 0 91.2 407
21:04:46 8 1006 0 1 NW 0 91.2 404
21:07:48 8 1006 0 3 SO 0 91.3 407
21:10:47 8 1006 0 2 W 0 91.3 407
21:13:48 8 1006 0 2 SO 0 91.3 406
21:16:47 8 1006 0 4 SW 0 91.2 404
21:19:46 8 1006 0 2 SW 0 91.1 405
21:22:45 8 1006 0 4 O 0 91 404
21:25:45 8 1006 0 4 S 0 91.1 404
21:28:48 8 1006 0 5 S 0 91.1 407
21:31:47 8 1006 0 3 SW 0 91.2 404
21:34:45 8 1006 0 1 SO 0 91.3 407
21:37:45 8 1006 0 2 S 0 91.3 406
21:40:48 8 1006 0 0 SO 0 91.3 407
21:43:46 8 1006 0 2 SW 0 91.4 404
21:46:47 8 1006 0 3 SW 0 91.3 403
21:49:46 8 1006 0 5 W 0 91.3 407
21:52:47 8 1006 0 3 SO 0 91.2 415
21:55:46 8 1006 0 3 W 0 91.2 421
21:58:45 8 1006 0 1 SW 0 91.3 431
22:01:47 8 1006 0 1 O 0 91.3 442
22:04:49 8 1006 0 2 S 0 91.4 445
22:07:48 8 1006 0 9 SW 0 91.6 448
22:10:47 8 1006 0 1 S 0 91.5 448
22:13:45 8 1006 0 0 S 0 91.6 457
22:16:47 8 1006 0 2 SW 0 91.7 454
22:19:47 8 1006 0 2 SO 0 91.7 454
22:22:46 8 1006 0 1 O 0 91.8 466
22:25:47 8 1006 0 0 S 0 91.8 468
22:28:46 8 1006 0 2 SW 0 92 474
22:31:49 8 1006 0 0 SW 0 92.2 480
22:34:45 8 1006 0 0 S 0 92.3 488
22:37:48 8 1006 0 1 SW 0 92.5 495
22:40:47 8 1006 0 1 SO 0 92.5 495
22:43:46 8 1006 0 1 S 0 92.6 495
22:46:49 8 1006 0 2 S 0 92.8 492
22:49:48 8 1006 0 0 S 0 92.8 500
22:52:47 8 1006 0 0 N 0 92.8 506
22:55:46 8 1006 0 0 NW 0 92.8 510
22:58:46 8 1006 0 4 S 0 92.8 513
23:01:47 8 1006 0 1 W 0 92.8 518
23:04:47 8 1006 0 0 SW 0 92.8 521
23:07:49 8 1006 0 2 S 0 92.8 524
23:10:47 8 1006 0 1 S 0 92.8 527
23:13:48 8 1006 0 2 SW 0 92.9 536
23:16:48 8 1006 0 4 O 0 92.8 539
23:19:45 8 1006 0 1 S 0 92.7 547
23:22:46 8 1006 0 1 S 0 92.4 547
23:25:45 8 1006 0 1 S 0 92.5 547
23:28:47 8 1006 0 2 N 0 92.6 550
23:31:47 8 1006 0 2 SO 0 92.5 553
23:34:50 8 1006 0 1 SW 0 92.5 559
23:37:47 8 1006 0 2 S 0 92.7 560
23:40:48 8 1006 0 2 SO 0 92.7 556
23:43:47 8 1006 0 0 SW 0 92.8 553
23:46:49 8 1006 0 2 SO 0 92.9 554
23:49:45 8 1006 0 1 S 0 92.9 565
23:52:47 8 1006 0 0 S 0 92.9 569
23:55:47 8 1006 0 1 S 0 93 566
23:58:47 8 1006 0 1 SW 0 93 565

Letzte Änderung : 04-Jan-2022
Copyright Jens Köhler, Wolfsburg, Obere Dorfstraße 10d